FW0527 Weather Reports


time (UTC)temp
C
wind
direction
speed
KPH
gust
KPH
rain 1hr
cm
rain 24hr
cm
rain mn
cm
humidity
%
barometer
mb
20260906184558 23 304 0.0 1.6 0.00 0.05 0.05 66 1012.1
20260906183052 23 304 0.0 0.0 0.00 0.05 0.05 67 1012.1
20260906181604 22 315 0.0 0.0 0.00 0.05 0.05 68 1012.1
20260906180049 22 339 0.0 0.0 0.00 0.05 0.05 71 1012.1
20260906174547 22 340 0.0 0.0 0.00 0.05 0.05 73 1012.0
20260906173045 21 355 0.0 0.0 0.00 0.05 0.05 76 1012.0
20260906171542 21 355 0.0 0.0 0.00 0.05 0.05 79 1011.8
20260906170040 21 355 0.0 0.0 0.00 0.05 0.05 82 1011.7
20260906164537 20 5 0.0 0.0 0.00 0.05 0.05 86 1011.6
20260906163049 20 5 0.0 0.0 0.00 0.05 0.05 89 1011.4
20260906161534 20 319 0.0 0.0 0.00 0.05 0.05 90 1011.4
20260906160033 20 320 0.0 0.0 0.00 0.05 0.05 90 1011.4
20260906154531 19 320 0.0 0.0 0.00 0.05 0.05 91 1011.4
20260906153033 18 320 0.0 0.0 0.00 0.05 0.05 91 1011.5
20260906151529 18 320 0.0 0.0 0.00 0.05 0.05 90 1011.5
20260906150032 18 320 0.0 0.0 0.00 0.05 0.05 90 1011.6
20260906144528 17 320 0.0 0.0 0.00 0.05 0.05 89 1011.5
20260906143027 17 320 0.0 0.0 0.00 0.05 0.05 89 1011.4
20260906141525 17 320 0.0 0.0 0.00 0.05 0.05 88 1011.2
20260906140024 17 320 0.0 0.0 0.03 0.05 0.05 87 1011.0
20260906134523 17 320 0.0 0.0 0.03 0.05 0.05 87 1010.9
20260906133027 17 320 0.0 0.0 0.03 0.05 0.05 86 1010.8
20260906131520 16 320 0.0 0.0 0.03 0.05 0.05 86 1010.7
20260906130021 16 320 0.0 0.0 0.00 0.03 0.03 85 1010.6
20260906124517 16 320 0.0 0.0 0.00 0.03 0.03 84 1010.6
20260906123023 16 320 0.0 0.0 0.00 0.03 0.03 84 1010.6
20260906121513 16 320 0.0 0.0 0.00 0.03 0.03 83 1010.7
20260906120010 17 320 0.0 0.0 0.00 0.03 0.03 83 1010.8
20260906114524 17 320 0.0 0.0 0.00 0.03 0.03 82 1010.8
20260906113006 17 320 0.0 0.0 0.03 0.03 0.03 81 1011.0
20260906111503 17 320 0.0 0.0 0.03 0.03 0.03 80 1010.9
20260906110004 17 320 0.0 0.0 0.03 0.03 0.03 80 1011.1
20260906104600 17 320 0.0 0.0 0.03 0.03 0.03 79 1011.2
20260906103100 18 320 0.0 0.0 0.00 0.00 0.00 79 1011.1
20260906101603 17 320 0.0 0.0 0.00 0.00 0.00 77 1011.0
20260906100058 17 320 0.0 0.0 0.00 0.00 0.00 77 1011.0
20260906094557 17 320 0.0 0.0 0.00 0.00 0.00 77 1011.0
20260906093055 17 320 0.0 0.0 0.00 0.00 0.00 76 1011.1
20260906091555 17 320 0.0 0.0 0.00 0.00 0.00 76 1011.3
20260906090053 17 320 0.0 0.0 0.00 0.00 0.00 76 1011.4
20260906084550 18 320 0.0 0.0 0.00 0.00 0.00 75 1011.6
20260906083048 18 320 0.0 0.0 0.00 0.00 0.00 74 1011.7
20260906081547 18 320 0.0 0.0 0.00 0.00 0.00 74 1011.8
20260906080043 18 320 0.0 0.0 0.00 0.00 0.00 72 1011.9
20260906074544 19 320 0.0 0.0 0.00 0.00 0.00 68 1012.3
20260906073043 19 320 0.0 0.0 0.00 0.00 0.00 66 1012.4
20260906071534 19 320 0.0 0.0 0.00 0.00 0.00 64 1012.6
20260906070031 19 318 0.0 0.0 0.00 0.00 0.00 60 1012.6
20260906064531 19 318 0.0 0.0 0.00 0.00 0.00 59 1012.5
20260906063031 19 318 0.0 0.0 0.00 0.00 0.00 58 1012.6
20260906061530 19 318 0.0 0.0 0.00 0.00 0.00 56 1012.6
20260906060034 19 318 0.0 0.0 0.00 0.00 0.00 56 1012.6
20260906054528 19 318 0.0 0.0 0.00 0.00 0.00 55 1012.6
20260906053031 20 318 0.0 0.0 0.00 0.00 0.00 54 1012.8
20260906051526 20 318 0.0 0.0 0.00 0.00 0.00 54 1012.7
20260906050025 20 318 0.0 0.0 0.00 0.00 0.00 53 1012.7
20260906044525 20 318 0.0 0.0 0.00 0.00 0.00 52 1012.7
20260906043027 21 318 0.0 0.0 0.00 0.00 0.00 52 1012.7
20260906041529 21 318 0.0 0.0 0.00 0.00 0.00 51 1012.6
20260906040032 21 318 0.0 0.0 0.00 0.00 0.00 50 1012.5
20260906034528 21 314 0.0 0.0 0.00 0.00 0.00 49 1012.6
20260906033021 22 310 0.0 0.0 0.00 0.00 0.00 49 1012.4
20260906031534 22 330 0.0 1.6 0.00 0.00 0.00 47 1012.3
20260906030021 22 315 0.0 8.0 0.00 0.00 0.00 46 1012.2
20260906024620 23 294 0.0 4.8 0.00 0.00 0.00 45 1012.1
20260906023019 23 303 0.0 1.6 0.00 0.00 0.00 44 1012.0
20260906021521 24 304 0.0 9.7 0.00 0.00 0.00 43 1012.0
20260906020018 24 295 0.0 0.0 0.00 0.00 0.00 41 1012.1
20260906014523 25 290 0.0 0.0 0.00 0.00 0.00 40 1012.1
20260906013017 25 305 0.0 1.6 0.00 0.00 0.00 39 1012.2
20260906011516 26 313 0.0 14.5 0.00 0.00 0.00 38 1012.2
20260906010015 26 316 0.0 16.1 0.00 0.00 0.00 38 1012.2
20260906004514 27 296 0.0 19.3 0.00 0.00 0.00 39 1012.1
20260906003014 27 205 0.0 4.8 0.00 0.00 0.00 40 1012.2
20260906001512 27 290 0.0 12.9 0.00 0.00 0.00 38 1012.1
20260906000011 27 216 0.0 12.9 0.00 0.00 0.00 37 1012.2
20260905234509 28 33 0.0 9.7 0.00 0.00 0.00 35 1012.1
20260905233008 28 304 0.0 1.6 0.00 0.00 0.00 35 1012.4
20260905231508 28 223 0.0 8.0 0.00 0.00 0.00 34 1012.4
20260905230007 28 312 0.0 16.1 0.00 0.00 0.00 33 1012.3
20260905224506 28 285 0.0 6.4 0.00 0.00 0.00 32 1012.4
20260905223005 29 312 3.2 12.9 0.00 0.00 0.00 31 1012.4
20260905221503 29 295 4.8 24.1 0.00 0.00 0.00 32 1012.4
20260905220002 28 211 8.0 22.5 0.00 0.00 0.00 33 1012.7
20260905214501 28 311 1.6 17.7 0.00 0.00 0.00 33 1012.7
20260905213104 28 289 0.0 12.9 0.00 0.00 0.00 33 1012.9
20260905211559 28 342 0.0 14.5 0.00 0.00 0.00 32 1013.1
20260905210107 28 261 0.0 17.7 0.00 0.00 0.00 31 1013.0
20260905204556 28 306 0.0 14.5 0.00 0.00 0.00 30 1013.1
20260905203058 29 291 0.0 9.7 0.00 0.00 0.00 29 1013.2
20260905201553 30 270 0.0 16.1 0.00 0.00 0.00 28 1013.3
20260905200107 30 198 0.0 6.4 0.00 0.00 0.00 28 1013.3
20260905194549 30 192 0.0 0.0 0.00 0.00 0.00 27 1013.3
20260905193046 29 282 4.8 20.9 0.00 0.00 0.00 26 1013.6
20260905191546 29 304 3.2 19.3 0.00 0.00 0.00 25 1013.9
20260905190051 30 321 4.8 19.3 0.00 0.00 0.00 24 1013.9